Fountain Dale, PA

5:45 AM EST on November 19, 2017 (GMT -0500)
Fountain Dale

Weather History for KRYT - September, 2013

Change the Weather History Date:

Monday, September 2, 2013

  Actual Average (KHGR) Record (KHGR)
Temperature  
Mean Temperature 82 °F -  
Max Temperature 91 °F 78 °F 97 °F (2010)
Min Temperature 73 °F 59 °F 53 °F (2001)
Cooling Degree Days 17    
Growing Degree Days 32 (Base 50)    
Moisture  
Dew Point 67 °F    
Average Humidity 63    
Maximum Humidity 82    
Minimum Humidity 44    
Precipitation  
Precipitation 0.01 in - - ()
Sea Level Pressure  
Sea Level Pressure 29.74 in    
Wind  
Wind Speed 1 mph (SW)    
Max Wind Speed 8 mph    
Max Gust Speed -    
Visibility 9 miles    
Events Rain    
Averages and records for this station are not official NWS values.
T = Trace of Precipitation, MM = Missing Value Source: NWS Daily Summary

Daily Weather History Graph

Daily Weather History Graph

Search for Another Location

Airport or City:

Trip Planner

Search our weather history database for the weather conditions in past years. The results will help you decide how hot, cold, wet, or windy it might be!

Date:

Astronomy

Sep. 02, 2013 Rise Set
Actual Time 6:38 AM EDT 7:38 PM EDT
Civil Twilight 6:11 AM EDT 8:06 PM EDT
Nautical Twilight 5:38 AM EDT 8:39 PM EDT
Astronomical Twilight 5:04 AM EDT 9:13 PM EDT
Moon 3:54 AM EDT (9/2) 5:51 PM EDT (9/2)
Length of Visible Light 13h 55m
Length of Day
13h 00m
Waning Crescent, 8% of the Moon is Illuminated
Sep 2
Waning Crescent
Sep 5
New
Sep 12
First Quarter
Sep 19
Full
Sep 26
Last Quarter

Hourly Weather History & Observations

Time (EDT) Temp. Heat Index Dew Point Humidity Pressure Visibility Wind Dir Wind Speed Gust Speed Precip Events Conditions
12:53 AM 75.0 °F - 69.1 °F 82% 29.75 in 5.0 mi Calm Calm - N/A   Haze
1:53 AM 75.9 °F - 66.9 °F 74% 29.75 in 8.0 mi Calm Calm - N/A   Mostly Cloudy
2:53 AM 75.9 °F - 69.1 °F 79% 29.75 in 8.0 mi Calm Calm - N/A   Overcast
3:53 AM 75.9 °F - 68.0 °F 76% 29.75 in 9.0 mi Calm Calm - 0.00 in Rain Light Rain
4:53 AM 75.9 °F - 68.0 °F 76% 29.74 in 10.0 mi Calm Calm - 0.00 in   Mostly Cloudy
5:53 AM 75.9 °F - 66.9 °F 74% 29.74 in 10.0 mi Calm Calm - N/A   Partly Cloudy
6:53 AM 73.9 °F - 66.9 °F 79% 29.76 in 6.0 mi Calm Calm - N/A   Haze
7:53 AM 77.0 °F - 66.0 °F 69% 29.76 in 10.0 mi Calm Calm - N/A   Overcast
8:53 AM 80.1 °F 82.1 °F 66.0 °F 62% 29.76 in 10.0 mi Variable 3.5 mph - N/A   Mostly Cloudy
9:53 AM 82.9 °F 85.4 °F 66.9 °F 58% 29.78 in 10.0 mi Variable 3.5 mph - N/A   Mostly Cloudy
10:53 AM 84.0 °F 87.0 °F 68.0 °F 58% 29.78 in 10.0 mi Variable 4.6 mph - 0.01 in   Mostly Cloudy
11:53 AM 84.9 °F 88.8 °F 69.1 °F 59% 29.78 in 10.0 mi Variable 3.5 mph - N/A   Mostly Cloudy
12:53 PM 86.0 °F 90.1 °F 69.1 °F 57% 29.76 in 10.0 mi Calm Calm - N/A   Scattered Clouds
1:53 PM 89.1 °F 92.9 °F 68.0 °F 50% 29.75 in 10.0 mi Variable 3.5 mph - N/A   Mostly Cloudy
2:53 PM 91.0 °F 95.2 °F 68.0 °F 47% 29.72 in 10.0 mi Variable 5.8 mph - N/A   Partly Cloudy
3:53 PM 91.0 °F 94.3 °F 66.9 °F 45% 29.70 in 10.0 mi SW 5.8 mph - N/A   Scattered Clouds
4:53 PM 91.0 °F 94.3 °F 66.9 °F 45% 29.69 in 10.0 mi SW 8.1 mph - N/A   Scattered Clouds
5:53 PM 91.0 °F 93.8 °F 66.0 °F 44% 29.69 in 10.0 mi WSW 5.8 mph - N/A   Mostly Cloudy
6:53 PM 86.0 °F 89.4 °F 68.0 °F 55% 29.70 in 9.0 mi Calm Calm - N/A   Partly Cloudy
7:53 PM 81.0 °F 84.1 °F 69.1 °F 67% 29.71 in 8.0 mi Calm Calm - N/A   Clear
8:53 PM 80.1 °F 82.3 °F 66.9 °F 64% 29.71 in 8.0 mi SW 3.5 mph - N/A   Clear
9:53 PM 82.0 °F 84.1 °F 66.0 °F 58% 29.72 in 9.0 mi Variable 5.8 mph - N/A   Clear
10:53 PM 81.0 °F 83.0 °F 66.0 °F 60% 29.73 in 10.0 mi Calm Calm - N/A   Clear
11:53 PM 80.1 °F 82.3 °F 66.9 °F 64% 29.72 in 9.0 mi Calm Calm - N/A   Clear